This demonstration page uses our WeatherBlox Daily Observations layout. Learn more.

Left ArrowRight Arrow

39.01783, -85.05884

Hourly Observations for April 1, 2015

Temp ( °F °C ) Dew Point ( °F °C ) Humidity (%) Winds ( mph kmh ) Pressure ( in mb ) Visibility ( mi km ) Precip ( " mm )
12:52 am 00:52 Clear 45 7.2 36 2.2 71 71 ENE 8 13 30.01 1016 10 16 0.00 0.00
1:52 am 01:52 Clear 42 5.6 35 1.7 76 76 E 9 15 30.03 1017 9 14 0.00 0.00
2:52 am 02:52 Clear 39 3.9 33 0.6 79 79 E 7 11 30.04 1017 8 13 0.00 0.00
3:52 am 03:52 Clear 37 2.8 32 0 82 82 ESE 5 7 30.04 1017 8 13 0.00 0.00
4:52 am 04:52 Clear 35 1.7 31 -0.6 85 85 SSE 3 6 30.04 1017 9 14 0.00 0.00
5:52 am 05:52 Clear 35 1.7 31 -0.6 85 85 SSE 6 9 30.05 1018 9 14 0.00 0.00
6:52 am 06:52 Clear 35 1.7 30 -1.1 82 82 S 3 6 30.07 1018 9 14 0.00 0.00
7:52 am 07:52 Sunny 34 1.1 31 -0.6 89 89 S 5 7 30.10 1019 7 11 0.00 0.00
8:52 am 08:52 Sunny 40 4.4 34 1.1 79 79 S 6 9 30.12 1020 8 13 0.00 0.00
9:52 am 09:52 Sunny 47 8.3 35 1.7 63 63 S 9 15 30.15 1021 10 16 0.00 0.00
10:52 am 10:52 Sunny 52 11 36 2 54 54 S 8 13 30.18 1022 10 16 0.00 0.00
11:52 am 11:52 Mostly Sunny 55 12.8 35 1.7 47 47 S 7 11 30.16 1021 10 16 0.00 0.00
12:52 pm 12:52 Sunny 59 15 35 1.7 41 41 VRB 6 9 30.15 1021 10 16 0.00 0.00
1:52 pm 13:52 Sunny 62 16.7 32 0 32 32 VRB 3 6 30.13 1020 10 16 0.00 0.00
2:52 pm 14:52 Mostly Sunny 64 17.8 31 -0.6 29 29 VRB 6 9 30.11 1020 10 16 0.00 0.00
3:52 pm 15:52 Mostly Sunny 65 18.3 31 -0.6 28 28 VRB 3 6 30.09 1019 10 16 0.00 0.00
4:52 pm 16:52 Mostly Sunny 66 18.9 30 -1.1 26 26 SE 6 9 30.08 1019 10 16 0.00 0.00
5:52 pm 17:52 Partly Cloudy 66 18.9 31 -0.6 27 27 SSE 8 13 30.07 1018 10 16 0.00 0.00
6:52 pm 18:52 Mostly Cloudy 63 17.2 32 0 31 31 SSE 12 19 30.08 1019 10 16 0.00 0.00
7:52 pm 19:52 Partly Cloudy 55 13 36 2 47 47 N 13 20 29.91 1013 10 16 0.00 0.00
8:52 pm 20:52 Mostly Cloudy 56 13.3 29 -1.7 36 36 SSE 7 11 30.08 1019 10 16 0.00 0.00
9:52 pm 21:52 Mostly Cloudy 53 11.7 29 -1.7 40 40 S 6 9 30.08 1019 10 16 0.00 0.00
10:52 pm 22:52 Mostly Clear 50 10 29 -1.7 44 44 SSE 5 7 30.06 1018 10 16 0.00 0.00
11:52 pm 23:52 Mostly Cloudy 50 10 29 -1.7 44 44 SSE 7 11 30.04 1017 10 16 0.00 0.00

Powered by AerisWeather